World > North America > United States > Kansas

Leavenworth, Kansas Regional Weather

Lat: 39.31N, Lon: 94.92W
Wx Zone: KSZ103
Feedback

Leavenworth, KS Regional Weather

Expires:201908250700;;169816
ASUS43 KEAX 250610
RWREAX

WEATHER ROUNDUP FOR EASTERN KANSAS AND NORTHWEST MISSOURI
NATIONAL WEATHER SERVICE KANSAS CITY/PLEASANT HILL MO
100 AM CDT SUN AUG 25 2019


KSZ040-057-103>105-MOZ028-029-037-043-250700-
...KANSAS CITY METROPOLITAN AREA...
  
CITY           SKY/WX    TMP DP  RH WIND       PRES   REMARKS
K.C. INTL      CLOUDY    70  61  73 E13       30.01F                  
6HR MIN TEMP:  70; 6HR MAX TEMP:  73;                                

K.C. DOWNTOWN  CLOUDY    73  60  63 E6G16     30.01F                  
6HR MIN TEMP:  72; 6HR MAX TEMP:  76;                                

LEES SUMMIT    CLOUDY    70  60  70 MISG      30.03F                  
6HR MIN TEMP:  70; 6HR MAX TEMP:  73;                                

OLATHE - IXD   CLOUDY    69  62  78 E8        30.01F                  
6HR MIN TEMP:  69; 6HR MAX TEMP:  71;                                

OLATHE - OJC   CLOUDY    68  63  84 SE8       30.00F                  
6HR MIN TEMP:  68; 6HR MAX TEMP:  69;                                

LAWRENCE       CLOUDY    71  62  73 SE13G18   30.00F                  

$$
 

SKY/WX - Weather  TMP - Temperature  DP - Dew Point  RH - Relative Humidity
WIND - Wind Direction/Speed PRES - Barometric Pressure VSB - Visibility
WCI - Wind Chill Index E13G22 Wind - East Wind 13 mph/Gusts of 22 mph